This is the latest recevied weather packets stored in our database for station/object I1SXT-13. If no packets are shown the sender has not sent any weather packets the latest 10 day(s).
| Time | Temp. | Humidity | Pressure | Rain* | Wind** | Luminosity | Snow |
|---|---|---|---|---|---|---|---|
| 1788568464 | 18.89° C | 77% | 1021 hPa | 0 mm | - | - | - |
| 1788564563 | 20° C | 75% | 1022.1 hPa | 0 mm | - | - | - |
| 1788563362 | 20° C | 77% | 1022.2 hPa | 0 mm | - | - | - |
| 1788560965 | 21.67° C | 68% | 1021.7 hPa | 0 mm | - | - | - |
| 1788558565 | 20.56° C | 76% | 1022.7 hPa | 0 mm | - | - | - |
| 1788558265 | 20.56° C | 75% | 1022.4 hPa | 0 mm | - | - | - |
| 1788557964 | 21.67° C | 72% | 1021.9 hPa | 0 mm | - | - | - |
| 1788556762 | 22.22° C | 68% | 1022.3 hPa | 0 mm | - | - | - |
| 1788554967 | 22.78° C | 67% | 1022.2 hPa | 0 mm | - | - | - |
| 1788552262 | 23.33° C | 67% | 1022.2 hPa | 0 mm | - | - | - |
| 1788549865 | 23.89° C | 68% | 1022.3 hPa | 0 mm | - | - | - |
| 1788549565 | 23.89° C | 67% | 1022.5 hPa | 0 mm | - | - | - |
| 1788549264 | 24.44° C | 68% | 1022.7 hPa | 0 mm | - | - | - |
| 1788548663 | 23.89° C | 68% | 1022.1 hPa | 0 mm | - | - | - |
| 1788545966 | 25° C | 64% | 1022.2 hPa | 0 mm | - | - | - |
| 1788540563 | 27.22° C | 70% | 1021.7 hPa | 0 mm | - | - | - |
| 1788539666 | 27.78° C | 66% | 1021.3 hPa | 0 mm | - | - | - |
| 1788539066 | 28.33° C | 63% | 1021.3 hPa | 0 mm | - | - | - |
| 1788535463 | 31.67° C | 54% | 1021.9 hPa | 0 mm | - | - | - |
| 1788535167 | 31.67° C | 57% | 1022.7 hPa | 0 mm | - | - | - |
| 1788534263 | 31.67° C | 54% | 1021.9 hPa | 0 mm | - | - | - |
| 1788533062 | 32.78° C | 50% | 1021.8 hPa | 0 mm | - | - | - |
| 1788530364 | 31.67° C | 53% | 1022.9 hPa | 0 mm | - | - | - |
| 1788530067 | 32.22° C | 55% | 1023 hPa | 0 mm | - | - | - |
| 1788527962 | 31.11° C | 62% | 1023 hPa | 0 mm | - | - | - |
* Rain since midnight (hover to see other rain measurements)
** Current wind speed in m/s (hover to see current wind gust speed)